Regional Weather Roundup
Issued by NWS Wilmington, NC

Home | Current Version | Previous Version | Text Only | Print | Product List | Glossary On
Versions: 1 2 3 4 5 6 7 8 9 10 11 12 13 14 15 16 17 18 19 20 21 22 23 24 25 26 27
000
ASUS42 KILM 252213
RWRILM
RWRILM
REGIONAL HOURLY WEATHER ROUNDUP
NATIONAL WEATHER SERVICE WILMINGTON NC
600 PM EDT SUN SEP 25 2016

NOTE: "FAIR" INDICATES FEW OR NO CLOUDS BELOW 12,000 FEET WITH NO
SIGNIFICANT WEATHER AND/OR OBSTRUCTIONS TO VISIBILITY.

...............WFO WILMINGTON COUNTY WARNING AREA...............

......COASTAL NC AND SC COUNTIES......

CITY           SKY/WX    TMP DP  RH WIND       PRES   REMARKS
WILMINGTON     CLOUDY    77  70  79 E10       30.07S
N MYRTLE BEACH PTSUNNY   80  72  76 SE10      30.05S
MYRTLE BEACH   MOSUNNY   81  66  61 SE9       30.07S

......INLAND NC AND SC COUNTIES.......

CITY           SKY/WX    TMP DP  RH WIND       PRES   REMARKS
LUMBERTON      MOSUNNY   82  71  69 E9        30.05R
ELIZABETHTOWN  MOSUNNY   81  71  71 CALM      30.06S
WHITEVILLE     NOT AVBL
FLORENCE       SUNNY     86  69  56 E7        30.05S HX  90
DARLINGTON     SUNNY     85  71  63 E5        30.05S HX  90
KINGSTREE      FAIR      84  68  58 CALM      30.04S
HARTSVILLE     FAIR      82  68  61 SE5       30.04S
BENNETTSVILLE  FAIR      86  72  62 CALM      30.04S HX  92
CONWAY         PTSUNNY   79  72  78 SE6       30.04F
GEORGETOWN     FAIR      81  72  74 E8        30.06S
MARION         PTSUNNY   82  68  61 CALM      30.04F

....................REST OF NORTH CAROLINA......................

.........EASTERN NC.........

CITY           SKY/WX    TMP DP  RH WIND       PRES   REMARKS
CAPE HATTERAS  MOSUNNY   72  58  61 NE10G17   30.10S
JACKSONVILLE   CLOUDY    74  68  81 NE8       30.10R
MOREHEAD CITY  CLOUDY    74  62  66 NE7       30.10R
KENANSVILLE    CLOUDY    73  68  83 E3        30.10R
NEW BERN       CLOUDY    74  62  66 E6        30.12R
ELIZABETH CITY SUNNY     70  55  59 NE9       30.13S

.........CENTRAL NC.........

CITY           SKY/WX    TMP DP  RH WIND       PRES   REMARKS
RALEIGH DURHAM CLOUDY    72  66  81 E6        30.11F
ROCKY MOUNT    CLOUDY    71  65  81 NE6       30.12R
ROANOKE RAPIDS NOT AVBL
FAYETTEVILLE   PTSUNNY   78  69  73 NE9       30.07S
HOFFMAN        PTSUNNY   80  71  74 E8        30.07R

.........WESTERN NC.........

CITY           SKY/WX    TMP DP  RH WIND       PRES   REMARKS
CHARLOTTE      MOSUNNY   85  67  54 E10       30.06R
GREENSBORO     CLOUDY    71  69  93 E8        30.11S FOG
HICKORY        NOT AVBL
BOONE          NOT AVBL
ASHEVILLE      NOT AVBL

.....................REST OF SOUTH CAROLINA.....................

.........EASTERN SC.........

CITY           SKY/WX    TMP DP  RH WIND       PRES   REMARKS
CHARLESTON     PTSUNNY   83  70  64 E10       30.03S
BEAUFORT MCAS  CLOUDY    84  71  65 E13       30.03R
HILTON HEAD    SUNNY     86  75  70 NE7       30.04R HX  95

.........CENTRAL SC.........

CITY           SKY/WX    TMP DP  RH WIND       PRES   REMARKS
COLUMBIA       MOSUNNY   87  68  52 SE8       30.03S HX  90
ORANGEBURG     SUNNY     85  66  53 SE7       30.04S
SUMTER SHAW    SUNNY     87  68  52 SE7       30.02S HX  91

.........WESTERN SC.........

CITY           SKY/WX    TMP DP  RH WIND       PRES   REMARKS
GREENVILLE     NOT AVBL
ROCK HILL      SUNNY     87  67  51 VRB3      30.05S HX  90
ANDERSON       SUNNY     91  60  35 S5        30.02S HX  90
CLEMSON        NOT AVBL
GREENWOOD      SUNNY     88  63  43 SE7       30.05R


...................COASTAL AND OFFSHORE REPORTS..................

................LOCAL PIERS AND NC RESERVE................


STATION/POSITION TIME  SKY/WX   TEMP    WIND        PRES    VSBY
                                AIR SEA DIR/SP/G
                 (UTC)          (F)     (DEG/KT/KT) (MB)    (MI)
JOHNY MRCER PIER 2148            77 83   80/ 18/ 19 1017.4S
NC RESRV MASNBRO 2045            78     100/  6     1017.0
OCEAN CREST PIER NOT AVBL
SPRINGMAID  PIER 2148            80 83   80/ 13/ 14 1017.2F


................COASTAL AND OFFSHORE BUOYS................


STATION/POSITION TIME  SKY/WX   TEMP    WIND        PRES    VSBY
                                AIR SEA DIR/SP/G
                 (UTC)          (F)     (DEG/KT/KT) (MB)    (MI)
DIMNDSHOAL 41025 2150            73 85   30/ 19/ 21 1018.3S
WVE H/P(F/S)=  5/ 8 SWL H/P/D(F/S/D)=  3/ 50/ 8

CAPE LOOKOUT     2200            74      40/ 17/ 19 1018.7R
ONSLOW BAY 41036 NOT AVBL
ONSLOW BAY 41064 2108            77 82   70/ 16/ 21 1018.3S
ONSLOW BAY 41159 2155               82                N/A
WVE H/P(F/S)=  5/ 5 SWL H/P/D(F/S/D)=  2/110/11

5SE WRITBC 41038 2108            78 81   80/ 14/ 19 1019.0F
MASNBO INL 41110 2129               81                N/A
WVE H/P(F/S)=  4/10 SWL H/P/D(F/S/D)=  2/120/11

WILM HARBR 41108 2126               81                N/A
WVE H/P(F/S)=  3/10 SWL H/P/D(F/S/D)=  2/120/11

27SE WRITB 41037 2108            78 81   70/ 17/ 23 1018.0F
FRYING PAN 41013 2150            80 82   60/ 16/ 19 1017.1S
WVE H/P(F/S)=  4/11 SWL H/P/D(F/S/D)=  2/100/11

SUNST NRSH 41024 2108            80 81  120/ 17/ 21 1016.9S
CAPRS NRSH 41029 2108            80 81   70/ 16/ 19 1016.6F
EDISTO     41004 2150            81 82   60/ 16/ 19 1016.0R
WVE H/P(F/S)=  5/10 SWL H/P/D(F/S/D)=  3/100/10



..........OFFSHORE BUOYS BEYOND 100 NM OFFSHORE...........
.....IN A TRIANGLE---HAT TO BERMUDA TO BAHAMAS TO HAT.....


STATION/POSITION TIME  SKY/WX   TEMP    WIND        PRES    VSBY
                                AIR SEA DIR/SP/G
                 (UTC)          (F)     (DEG/KT/KT) (MB)    (MI)
150E HAT   41001 NOT AVBL
W BERMUDA  41048 2150            81 84  350/ 19/ 21 1014.1R
WVE H/P(F/S)=  4/ 6 SWL H/P/D(F/S/D)=  3/ 6

ATLANTIC S 41049 2150            83 84  300/  8/  8 1014.4R
WVE H/P(F/S)=  6/ 9 SWL H/P/D(F/S/D)=  7/ 9

E BAHAMAS  41046 2150            85 87   80/  6/  8 1014.3R
WVE H/P(F/S)=  4/ 8 SWL H/P/D(F/S/D)=  3/ 40/ 8

NE BAHAMAS 41047 2200            84 87   80/  2/  4 1014.3
120E CANVRL41010 NOT AVBL

END




USA.gov is the U.S. government's official web portal to all federal, state and local government web resources and services.